Prescott, AZ

3:19 PM MST on November 17, 2019 (GMT -0700)
Love

Weather History for KPRC - September, 2019

Change the Weather History Date:

Thursday, September 5, 2019

  Actual Average Record
Temperature  
Mean Temperature 77 °F 71 °F  
Max Temperature 92 °F 85 °F 95 °F (1979)
Min Temperature 62 °F 57 °F 43 °F (1985)
Degree Days  
Heating Degree Days 0    
Month to date heating degree days 0  
Since 1 July heating degree days 0  
Cooling Degree Days 12    
Month to date cooling degree days 70  
Year to date cooling degree days 1045  
Growing Degree Days 27 (Base 50)    
Moisture  
Dew Point 55 °F    
Average Humidity 56    
Maximum Humidity 90    
Minimum Humidity 24    
Precipitation  
Precipitation 0.12 in 0.06 in 0.74 in (1976)
Month to date precipitation 0.21 0.31  
Year to date precipitation 8.32 9.97  
Sea Level Pressure  
Sea Level Pressure 30.04 in    
Wind  
Wind Speed 5 mph ()    
Max Wind Speed 20 mph    
Max Gust Speed 23 mph    
Visibility 9.4 miles    
Events Rain , Thunderstorm    
T = Trace of Precipitation, MM = Missing Value Source: Averaged Metar Reports

Daily Weather History Graph

Daily Weather History Graph

Search for Another Location

Airport or City:

Astronomy

Sep. 05, 2019 Rise Set
Actual Time 6:05 AM MST 6:50 PM MST
Civil Twilight 5:39 AM MST 7:16 PM MST
Nautical Twilight 5:09 AM MST 7:46 PM MST
Astronomical Twilight 4:38 AM MST 8:17 PM MST
Moon 12:59 PM MST (9/5) 11:26 PM MST (9/5)
Length of Visible Light 13h 36m
Length of Day
12h 45m
Waxing Crescent, 46% of the Moon is Illuminated
Sep 5
Waxing Crescent
Sep 5
First Quarter
Sep 13
Full
Sep 21
Last Quarter
Sep 28
New

Hourly Weather History & Observations

Time (MST) Temp. Heat Index Dew Point Humidity Pressure Visibility Wind Dir Wind Speed Gust Speed Precip Events Conditions
12:53 AM 69.1 °F - 59.0 °F 70% 29.92 in 10.0 mi Calm Calm - N/A   Scattered Clouds
1:13 AM 71.1 °F - 59.0 °F 66% 30.25 in 10.0 mi SSE 12.7 mph - N/A Thunderstorm Mostly Cloudy
1:20 AM 73.0 °F - 55.9 °F 55% 30.26 in 8.0 mi SE 11.5 mph - 0.00 in Rain , Thunderstorm Light Thunderstorms and Rain
1:28 AM 73.9 °F - 51.1 °F 45% 30.25 in 1.8 mi Variable 4.6 mph - 0.12 in Rain , Thunderstorm Heavy Thunderstorms and Rain
1:34 AM 70.0 °F - 55.9 °F 61% 30.26 in 3.0 mi Calm Calm - 0.12 in Rain , Thunderstorm Light Thunderstorms and Rain
1:53 AM 70.0 °F - 57.9 °F 65% 29.95 in 10.0 mi North 5.8 mph - 0.12 in Thunderstorm Partly Cloudy
2:14 AM 68.0 °F - 59.0 °F 73% 30.24 in 10.0 mi West 3.5 mph - N/A   Clear
2:53 AM 66.0 °F - 60.1 °F 81% 29.96 in 10.0 mi South 6.9 mph - N/A   Partly Cloudy
3:53 AM 64.9 °F - 60.1 °F 84% 29.97 in 10.0 mi SSW 4.6 mph - N/A   Clear
4:53 AM 63.0 °F - 59.0 °F 87% 29.98 in 10.0 mi SSW 8.1 mph - N/A   Clear
5:53 AM 63.0 °F - 57.9 °F 84% 29.99 in 10.0 mi South 8.1 mph - N/A   Clear
6:53 AM 64.0 °F - 57.0 °F 78% 30.03 in 10.0 mi SSW 4.6 mph - N/A   Clear
7:53 AM 71.1 °F - 57.9 °F 63% 30.03 in 10.0 mi Calm Calm - N/A   Clear
8:53 AM 77.0 °F - 55.0 °F 47% 30.04 in 10.0 mi Calm Calm - N/A   Clear
9:53 AM 82.0 °F 81.2 °F 53.1 °F 37% 30.03 in 10.0 mi South 8.1 mph - N/A   Clear
10:53 AM 84.0 °F - 52.0 °F 33% 30.01 in 10.0 mi Calm Calm - N/A   Partly Cloudy
11:53 AM 86.0 °F - 52.0 °F 31% 30.00 in 10.0 mi Variable 3.5 mph - N/A   Partly Cloudy
12:53 PM 89.6 °F - 48.2 °F 24% 29.97 in 10.0 mi East 9.2 mph 18.4 mph N/A Thunderstorm Partly Cloudy
1:53 PM 89.1 °F - 51.1 °F 27% 29.95 in 10.0 mi Variable 6.9 mph - N/A Thunderstorm Mostly Cloudy
2:53 PM 82.9 °F 82.0 °F 55.0 °F 38% 29.97 in 10.0 mi West 11.5 mph - N/A   Scattered Clouds
4:53 PM 81.0 °F - 52.0 °F 36% 29.97 in 10.0 mi West 8.1 mph - N/A   Scattered Clouds
5:53 PM 79.0 °F - 53.1 °F 40% 29.99 in 10.0 mi NNW 8.1 mph - N/A   Clear
6:53 PM 75.0 °F - 54.0 °F 48% 30.01 in 10.0 mi NNW 4.6 mph - N/A   Clear
7:53 PM 73.0 °F - 55.0 °F 53% 30.01 in 10.0 mi SW 3.5 mph - N/A   Clear
8:53 PM 70.0 °F - 55.9 °F 61% 30.01 in 10.0 mi SSW 6.9 mph - N/A   Clear
9:53 PM 69.1 °F - 54.0 °F 58% 30.01 in 10.0 mi SSW 5.8 mph - N/A   Clear
10:53 PM 66.9 °F - 54.0 °F 63% 30.01 in 10.0 mi SSW 3.5 mph - N/A   Clear
11:53 PM 64.9 °F - 55.0 °F 70% 30.00 in 10.0 mi South 4.6 mph - N/A   Clear